iso_date,epoch_date,Year,Hour,Min,DOY,POS_DOY,Lat,Lon,BP,Ts,Ta,has_bp,has_ts,has_ta,BuoyID,Buoy_Type,Buoy_Owner,Logistics,Hemisphere
2020-09-25T16:59:57Z,1601053197,2020,17,0,269.7083,269.7083,52.273,4.74,991.1,19.6,-999.0,yes,yes,no,300234066024200,SVP-B,USIABP-AOML,Svalbard,North
2020-09-25T18:00:00Z,1601056800,2020,18,0,269.75,269.75,52.192,5.405,991.2,19.39,-999.0,yes,yes,no,300234066024200,SVP-B,USIABP-AOML,Svalbard,North
2020-09-25T19:00:02Z,1601060403,2020,19,0,269.7917,269.7917,52.534,6.18,993.5,18.81,-999.0,yes,yes,no,300234066024200,SVP-B,USIABP-AOML,Svalbard,North
2020-09-25T19:59:57Z,1601063997,2020,20,0,269.8333,269.8333,52.534,6.18,993.6,18.28,-999.0,yes,yes,no,300234066024200,SVP-B,USIABP-AOML,Svalbard,North
2020-09-25T21:00:00Z,1601067600,2020,21,0,269.875,269.875,52.534,6.179,993.8,17.89,-999.0,yes,yes,no,300234066024200,SVP-B,USIABP-AOML,Svalbard,North
2020-09-25T22:00:02Z,1601071203,2020,22,0,269.9167,269.9167,52.534,6.179,994.0,17.48,-999.0,yes,yes,no,300234066024200,SVP-B,USIABP-AOML,Svalbard,North
2020-09-25T22:59:57Z,1601074797,2020,23,0,269.9583,269.9583,52.534,6.179,993.9,17.08,-999.0,yes,yes,no,300234066024200,SVP-B,USIABP-AOML,Svalbard,North
2020-09-26T00:00:00Z,1601078400,2020,0,0,270.0,270.0,52.534,6.18,994.5,16.69,-999.0,yes,yes,no,300234066024200,SVP-B,USIABP-AOML,Svalbard,North
2020-09-26T01:00:02Z,1601082003,2020,1,0,270.0417,270.0417,52.533,6.181,994.8,16.32,-999.0,yes,yes,no,300234066024200,SVP-B,USIABP-AOML,Svalbard,North
2020-09-26T01:59:57Z,1601085597,2020,2,0,270.0833,270.0833,52.533,6.179,995.2,15.95,-999.0,yes,yes,no,300234066024200,SVP-B,USIABP-AOML,Svalbard,North
2020-09-26T03:00:00Z,1601089200,2020,3,0,270.125,270.125,52.534,6.179,995.7,15.57,-999.0,yes,yes,no,300234066024200,SVP-B,USIABP-AOML,Svalbard,North
2020-09-26T04:00:02Z,1601092803,2020,4,0,270.1667,270.1667,52.534,6.179,996.2,15.22,-999.0,yes,yes,no,300234066024200,SVP-B,USIABP-AOML,Svalbard,North
2020-09-26T04:59:57Z,1601096397,2020,5,0,270.2083,270.2083,52.534,6.18,996.7,14.91,-999.0,yes,yes,no,300234066024200,SVP-B,USIABP-AOML,Svalbard,North
2020-09-26T06:00:00Z,1601100000,2020,6,0,270.25,270.25,52.534,6.18,997.4,14.61,-999.0,yes,yes,no,300234066024200,SVP-B,USIABP-AOML,Svalbard,North
2020-09-26T07:00:02Z,1601103603,2020,7,0,270.2917,270.2917,52.534,6.18,998.1,14.27,-999.0,yes,yes,no,300234066024200,SVP-B,USIABP-AOML,Svalbard,North
2020-09-26T07:59:57Z,1601107197,2020,8,0,270.3333,270.3333,52.533,6.18,998.6,14.0,-999.0,yes,yes,no,300234066024200,SVP-B,USIABP-AOML,Svalbard,North
2020-09-26T09:00:00Z,1601110800,2020,9,0,270.375,270.375,52.534,6.18,999.2,13.77,-999.0,yes,yes,no,300234066024200,SVP-B,USIABP-AOML,Svalbard,North
2020-09-26T10:00:02Z,1601114403,2020,10,0,270.4167,270.4167,52.534,6.18,999.4,13.65,-999.0,yes,yes,no,300234066024200,SVP-B,USIABP-AOML,Svalbard,North
2020-09-26T10:59:57Z,1601117997,2020,11,0,270.4583,270.4583,52.534,6.18,999.8,13.61,-999.0,yes,yes,no,300234066024200,SVP-B,USIABP-AOML,Svalbard,North
2020-09-26T12:00:00Z,1601121600,2020,12,0,270.5,270.5,52.534,6.18,1000.5,13.66,-999.0,yes,yes,no,300234066024200,SVP-B,USIABP-AOML,Svalbard,North
2020-09-26T13:00:02Z,1601125203,2020,13,0,270.5417,270.5417,52.534,6.18,1000.6,13.75,-999.0,yes,yes,no,300234066024200,SVP-B,USIABP-AOML,Svalbard,North
2020-09-26T13:59:57Z,1601128797,2020,14,0,270.5833,270.5833,52.534,6.179,1000.5,13.86,-999.0,yes,yes,no,300234066024200,SVP-B,USIABP-AOML,Svalbard,North
2020-09-26T15:00:00Z,1601132400,2020,15,0,270.625,270.625,52.534,6.18,1000.6,13.99,-999.0,yes,yes,no,300234066024200,SVP-B,USIABP-AOML,Svalbard,North
2020-09-26T16:00:02Z,1601136003,2020,16,0,270.6667,270.6667,52.534,6.18,1000.3,14.11,-999.0,yes,yes,no,300234066024200,SVP-B,USIABP-AOML,Svalbard,North
2020-09-26T16:59:57Z,1601139597,2020,17,0,270.7083,270.7083,52.681,6.366,998.8,14.19,-999.0,yes,yes,no,300234066024200,SVP-B,USIABP-AOML,Svalbard,North
2020-09-26T18:00:00Z,1601143200,2020,18,0,270.75,270.75,52.692,7.547,994.2,14.28,-999.0,yes,yes,no,300234066024200,SVP-B,USIABP-AOML,Svalbard,North
2020-09-26T19:00:02Z,1601146803,2020,19,0,270.7917,270.7917,52.94,8.514,989.4,14.38,-999.0,yes,yes,no,300234066024200,SVP-B,USIABP-AOML,Svalbard,North
2020-09-26T19:59:57Z,1601150397,2020,20,0,270.8333,270.8333,53.331,9.612,984.8,14.43,-999.0,yes,yes,no,300234066024200,SVP-B,USIABP-AOML,Svalbard,North
2020-09-26T21:00:00Z,1601154000,2020,21,0,270.875,270.875,53.802,10.449,988.1,14.48,-999.0,yes,yes,no,300234066024200,SVP-B,USIABP-AOML,Svalbard,North
2020-09-26T22:00:02Z,1601157603,2020,22,0,270.9167,270.9167,53.881,10.663,992.3,14.62,-999.0,yes,yes,no,300234066024200,SVP-B,USIABP-AOML,Svalbard,North
2020-09-27T04:59:57Z,1601182797,2020,5,0,271.2083,271.2083,53.881,10.663,1000.7,16.25,-999.0,yes,yes,no,300234066024200,SVP-B,USIABP-AOML,Svalbard,North
2020-09-27T06:00:00Z,1601186400,2020,6,0,271.25,271.25,53.881,10.663,1001.1,16.38,-999.0,yes,yes,no,300234066024200,SVP-B,USIABP-AOML,Svalbard,North
2020-09-27T07:00:02Z,1601190003,2020,7,0,271.2917,271.2917,53.881,10.663,1001.8,16.51,-999.0,yes,yes,no,300234066024200,SVP-B,USIABP-AOML,Svalbard,North
2020-09-27T07:59:57Z,1601193597,2020,8,0,271.3333,271.3333,53.881,10.663,1002.9,16.63,-999.0,yes,yes,no,300234066024200,SVP-B,USIABP-AOML,Svalbard,North
2020-09-27T09:00:00Z,1601197200,2020,9,0,271.375,271.375,55.629,12.996,1003.4,16.77,-999.0,yes,yes,no,300234066024200,SVP-B,USIABP-AOML,Svalbard,North
2020-09-27T10:00:02Z,1601200803,2020,10,0,271.4167,271.4167,56.152,12.845,1002.3,16.96,-999.0,yes,yes,no,300234066024200,SVP-B,USIABP-AOML,Svalbard,North
2020-09-27T10:59:57Z,1601204397,2020,11,0,271.4583,271.4583,56.881,12.614,1003.2,17.41,-999.0,yes,yes,no,300234066024200,SVP-B,USIABP-AOML,Svalbard,North
2020-09-27T12:00:00Z,1601208000,2020,12,0,271.5,271.5,57.592,12.062,1007.6,17.95,-999.0,yes,yes,no,300234066024200,SVP-B,USIABP-AOML,Svalbard,North
2020-09-27T13:00:02Z,1601211603,2020,13,0,271.5417,271.5417,58.024,11.848,1008.6,18.4,-999.0,yes,yes,no,300234066024200,SVP-B,USIABP-AOML,Svalbard,North
2020-09-27T13:59:57Z,1601215197,2020,14,0,271.5833,271.5833,58.445,11.689,1007.2,18.56,-999.0,yes,yes,no,300234066024200,SVP-B,USIABP-AOML,Svalbard,North
2020-09-27T15:00:00Z,1601218800,2020,15,0,271.625,271.625,59.109,11.262,1006.6,18.58,-999.0,yes,yes,no,300234066024200,SVP-B,USIABP-AOML,Svalbard,North
2020-09-27T16:00:02Z,1601222403,2020,16,0,271.6667,271.6667,59.709,10.738,1010.6,18.58,-999.0,yes,yes,no,300234066024200,SVP-B,USIABP-AOML,Svalbard,North
2020-09-27T16:59:57Z,1601225997,2020,17,0,271.7083,271.7083,59.819,10.778,1007.6,18.5,-999.0,yes,yes,no,300234066024200,SVP-B,USIABP-AOML,Svalbard,North
2020-09-27T18:00:00Z,1601229600,2020,18,0,271.75,271.75,59.82,10.778,1007.9,18.42,-999.0,yes,yes,no,300234066024200,SVP-B,USIABP-AOML,Svalbard,North
2020-09-27T19:00:02Z,1601233203,2020,19,0,271.7917,271.7917,59.82,10.778,1008.1,18.27,-999.0,yes,yes,no,300234066024200,SVP-B,USIABP-AOML,Svalbard,North
2020-09-27T19:59:57Z,1601236797,2020,20,0,271.8333,271.8333,59.819,10.778,1008.4,18.09,-999.0,yes,yes,no,300234066024200,SVP-B,USIABP-AOML,Svalbard,North
2020-09-27T21:00:00Z,1601240400,2020,21,0,271.875,271.875,59.819,10.778,1008.3,17.88,-999.0,yes,yes,no,300234066024200,SVP-B,USIABP-AOML,Svalbard,North
2020-09-27T22:00:02Z,1601244003,2020,22,0,271.9167,271.9167,59.819,10.778,1008.4,17.62,-999.0,yes,yes,no,300234066024200,SVP-B,USIABP-AOML,Svalbard,North
2020-09-27T22:59:57Z,1601247597,2020,23,0,271.9583,271.9583,59.819,10.778,1008.4,17.34,-999.0,yes,yes,no,300234066024200,SVP-B,USIABP-AOML,Svalbard,North
2020-09-28T00:00:00Z,1601251200,2020,0,0,272.0,272.0,59.819,10.779,1008.4,17.05,-999.0,yes,yes,no,300234066024200,SVP-B,USIABP-AOML,Svalbard,North
2020-09-28T01:00:02Z,1601254803,2020,1,0,272.0417,272.0417,59.819,10.778,1008.1,16.79,-999.0,yes,yes,no,300234066024200,SVP-B,USIABP-AOML,Svalbard,North
2020-09-28T01:59:57Z,1601258397,2020,2,0,272.0833,272.0833,59.819,10.777,1008.0,16.52,-999.0,yes,yes,no,300234066024200,SVP-B,USIABP-AOML,Svalbard,North
2020-09-28T03:00:00Z,1601262000,2020,3,0,272.125,272.125,59.819,10.778,1007.4,16.27,-999.0,yes,yes,no,300234066024200,SVP-B,USIABP-AOML,Svalbard,North
2020-09-28T04:00:02Z,1601265603,2020,4,0,272.1667,272.1667,59.819,10.778,1007.2,16.01,-999.0,yes,yes,no,300234066024200,SVP-B,USIABP-AOML,Svalbard,North
2020-09-28T04:59:57Z,1601269197,2020,5,0,272.2083,272.2083,59.82,10.778,1007.1,15.71,-999.0,yes,yes,no,300234066024200,SVP-B,USIABP-AOML,Svalbard,North
2020-09-28T06:00:00Z,1601272800,2020,6,0,272.25,272.25,59.819,10.778,1007.2,15.43,-999.0,yes,yes,no,300234066024200,SVP-B,USIABP-AOML,Svalbard,North
2020-09-28T07:00:02Z,1601276403,2020,7,0,272.2917,272.2917,59.819,10.778,1007.3,15.19,-999.0,yes,yes,no,300234066024200,SVP-B,USIABP-AOML,Svalbard,North
2020-09-28T07:59:57Z,1601279997,2020,8,0,272.3333,272.3333,59.819,10.778,1007.4,15.01,-999.0,yes,yes,no,300234066024200,SVP-B,USIABP-AOML,Svalbard,North
2020-09-28T09:00:00Z,1601283600,2020,9,0,272.375,272.375,59.941,11.015,995.6,14.86,-999.0,yes,yes,no,300234066024200,SVP-B,USIABP-AOML,Svalbard,North
2020-09-28T10:00:02Z,1601287203,2020,10,0,272.4167,272.4167,60.178,11.091,992.8,14.77,-999.0,yes,yes,no,300234066024200,SVP-B,USIABP-AOML,Svalbard,North
2020-09-28T10:59:57Z,1601290797,2020,11,0,272.4583,272.4583,60.167,11.136,992.8,14.76,-999.0,yes,yes,no,300234066024200,SVP-B,USIABP-AOML,Svalbard,North
2020-10-06T04:00:02Z,1601956803,2020,4,0,280.1667,280.1667,60.167,11.136,977.8,19.98,-999.0,yes,yes,no,300234066024200,SVP-B,USIABP-AOML,Svalbard,North
2020-10-06T04:59:57Z,1601960397,2020,5,0,280.2083,280.2083,60.167,11.136,976.7,19.98,-999.0,yes,yes,no,300234066024200,SVP-B,USIABP-AOML,Svalbard,North
2020-10-06T06:00:00Z,1601964000,2020,6,0,280.25,280.25,60.167,11.136,976.1,19.97,-999.0,yes,yes,no,300234066024200,SVP-B,USIABP-AOML,Svalbard,North
2020-10-06T07:00:02Z,1601967603,2020,7,0,280.2917,280.2917,60.167,11.136,975.6,19.88,-999.0,yes,yes,no,300234066024200,SVP-B,USIABP-AOML,Svalbard,North
2020-10-06T07:59:57Z,1601971197,2020,8,0,280.3333,280.3333,60.167,11.136,975.0,19.83,-999.0,yes,yes,no,300234066024200,SVP-B,USIABP-AOML,Svalbard,North
2020-10-06T09:00:00Z,1601974800,2020,9,0,280.375,280.375,60.015,11.062,979.3,19.62,-999.0,yes,yes,no,300234066024200,SVP-B,USIABP-AOML,Svalbard,North
2020-10-07T10:59:57Z,1602068397,2020,11,0,281.4583,281.4583,60.015,11.062,981.6,16.44,-999.0,yes,yes,no,300234066024200,SVP-B,USIABP-AOML,Svalbard,North
2020-10-07T12:00:00Z,1602072000,2020,12,0,281.5,281.5,60.015,11.062,981.9,16.42,-999.0,yes,yes,no,300234066024200,SVP-B,USIABP-AOML,Svalbard,North
2020-10-07T13:00:02Z,1602075603,2020,13,0,281.5417,281.5417,60.015,11.062,982.1,16.41,-999.0,yes,yes,no,300234066024200,SVP-B,USIABP-AOML,Svalbard,North
2020-10-07T13:59:57Z,1602079197,2020,14,0,281.5833,281.5833,60.015,11.062,982.5,16.4,-999.0,yes,yes,no,300234066024200,SVP-B,USIABP-AOML,Svalbard,North
2020-10-07T15:00:00Z,1602082800,2020,15,0,281.625,281.625,60.015,11.062,982.8,16.39,-999.0,yes,yes,no,300234066024200,SVP-B,USIABP-AOML,Svalbard,North
2020-10-07T16:00:02Z,1602086403,2020,16,0,281.6667,281.6667,60.013,11.055,982.8,16.39,-999.0,yes,yes,no,300234066024200,SVP-B,USIABP-AOML,Svalbard,North
2020-10-07T16:59:57Z,1602089997,2020,17,0,281.7083,281.7083,60.014,11.055,983.4,16.17,-999.0,yes,yes,no,300234066024200,SVP-B,USIABP-AOML,Svalbard,North
2020-10-07T18:00:00Z,1602093600,2020,18,0,281.75,281.75,59.924,10.834,990.2,15.52,-999.0,yes,yes,no,300234066024200,SVP-B,USIABP-AOML,Svalbard,North
2020-10-07T19:00:02Z,1602097203,2020,19,0,281.7917,281.7917,60.2,10.133,989.3,14.71,-999.0,yes,yes,no,300234066024200,SVP-B,USIABP-AOML,Svalbard,North
2020-10-07T19:59:57Z,1602100797,2020,20,0,281.8333,281.8333,60.392,9.521,985.2,14.02,-999.0,yes,yes,no,300234066024200,SVP-B,USIABP-AOML,Svalbard,North
2020-10-07T21:00:00Z,1602104400,2020,21,0,281.875,281.875,60.75,8.856,941.8,13.29,-999.0,yes,yes,no,300234066024200,SVP-B,USIABP-AOML,Svalbard,North
2020-10-07T22:00:02Z,1602108003,2020,22,0,281.9167,281.9167,61.074,7.95,943.1,12.66,-999.0,yes,yes,no,300234066024200,SVP-B,USIABP-AOML,Svalbard,North
2020-10-07T22:59:57Z,1602111597,2020,23,0,281.9583,281.9583,61.15,7.386,1001.0,12.22,-999.0,yes,yes,no,300234066024200,SVP-B,USIABP-AOML,Svalbard,North
2020-10-08T00:00:00Z,1602115200,2020,0,0,282.0,282.0,61.198,7.224,983.7,11.75,-999.0,yes,yes,no,300234066024200,SVP-B,USIABP-AOML,Svalbard,North
2020-10-08T01:00:02Z,1602118803,2020,1,0,282.0417,282.0417,61.198,7.224,963.4,11.55,-999.0,yes,yes,no,300234066024200,SVP-B,USIABP-AOML,Svalbard,North
2020-10-08T01:59:57Z,1602122397,2020,2,0,282.0833,282.0833,61.575,6.483,976.5,11.55,-999.0,yes,yes,no,300234066024200,SVP-B,USIABP-AOML,Svalbard,North
2020-10-08T03:00:00Z,1602126000,2020,3,0,282.125,282.125,61.439,5.897,1000.4,11.52,-999.0,yes,yes,no,300234066024200,SVP-B,USIABP-AOML,Svalbard,North
2020-10-08T04:00:02Z,1602129603,2020,4,0,282.1667,282.1667,61.453,5.854,1001.0,11.5,-999.0,yes,yes,no,300234066024200,SVP-B,USIABP-AOML,Svalbard,North
2020-10-08T04:59:57Z,1602133197,2020,5,0,282.2083,282.2083,61.453,5.854,1001.1,11.49,-999.0,yes,yes,no,300234066024200,SVP-B,USIABP-AOML,Svalbard,North
2020-10-08T06:00:00Z,1602136800,2020,6,0,282.25,282.25,61.453,5.854,1001.2,11.5,-999.0,yes,yes,no,300234066024200,SVP-B,USIABP-AOML,Svalbard,North
2020-10-08T07:00:02Z,1602140403,2020,7,0,282.2917,282.2917,61.611,5.097,1001.0,11.44,-999.0,yes,yes,no,300234066024200,SVP-B,USIABP-AOML,Svalbard,North
2020-10-08T07:59:57Z,1602143997,2020,8,0,282.3333,282.3333,61.608,5.081,999.2,11.1,-999.0,yes,yes,no,300234066024200,SVP-B,USIABP-AOML,Svalbard,North
2020-10-08T09:00:00Z,1602147600,2020,9,0,282.375,282.375,61.608,5.081,999.3,10.89,-999.0,yes,yes,no,300234066024200,SVP-B,USIABP-AOML,Svalbard,North
2020-10-08T10:00:02Z,1602151203,2020,10,0,282.4167,282.4167,61.602,5.051,1001.4,10.78,-999.0,yes,yes,no,300234066024200,SVP-B,USIABP-AOML,Svalbard,North
2020-10-08T10:59:57Z,1602154797,2020,11,0,282.4583,282.4583,60.918,11.644,1001.6,10.87,-999.0,yes,yes,no,300234066024200,SVP-B,USIABP-AOML,Svalbard,North
2020-10-08T12:00:00Z,1602158400,2020,12,0,282.5,282.5,61.602,5.05,1001.7,11.52,-999.0,yes,yes,no,300234066024200,SVP-B,USIABP-AOML,Svalbard,North
2020-10-08T13:00:02Z,1602162003,2020,13,0,282.5417,282.5417,61.602,5.052,1001.4,12.2,-999.0,yes,yes,no,300234066024200,SVP-B,USIABP-AOML,Svalbard,North
2020-10-08T13:59:57Z,1602165597,2020,14,0,282.5833,282.5833,61.602,5.051,1001.2,12.86,-999.0,yes,yes,no,300234066024200,SVP-B,USIABP-AOML,Svalbard,North
2020-10-08T16:00:02Z,1602172803,2020,16,0,282.6667,282.6667,61.601,5.053,1000.6,14.0,-999.0,yes,yes,no,300234066024200,SVP-B,USIABP-AOML,Svalbard,North
2020-10-08T19:59:57Z,1602187197,2020,20,0,282.8333,282.8333,61.602,5.052,1000.4,15.57,-999.0,yes,yes,no,300234066024200,SVP-B,USIABP-AOML,Svalbard,North
2020-10-08T21:00:00Z,1602190800,2020,21,0,282.875,282.875,61.6,5.054,1000.3,15.88,-999.0,yes,yes,no,300234066024200,SVP-B,USIABP-AOML,Svalbard,North
2020-10-08T22:00:02Z,1602194403,2020,22,0,282.9167,282.9167,61.602,5.051,1000.3,16.13,-999.0,yes,yes,no,300234066024200,SVP-B,USIABP-AOML,Svalbard,North
2020-10-08T22:59:57Z,1602197997,2020,23,0,282.9583,282.9583,61.602,5.052,1000.3,16.35,-999.0,yes,yes,no,300234066024200,SVP-B,USIABP-AOML,Svalbard,North
2020-10-09T00:00:00Z,1602201600,2020,0,0,283.0,283.0,61.602,5.052,1000.5,16.54,-999.0,yes,yes,no,300234066024200,SVP-B,USIABP-AOML,Svalbard,North
2020-10-09T01:00:02Z,1602205203,2020,1,0,283.0417,283.0417,61.602,5.052,1000.5,16.7,-999.0,yes,yes,no,300234066024200,SVP-B,USIABP-AOML,Svalbard,North
2020-10-09T01:59:57Z,1602208797,2020,2,0,283.0833,283.0833,61.604,5.053,1001.6,16.86,-999.0,yes,yes,no,300234066024200,SVP-B,USIABP-AOML,Svalbard,North
2020-10-09T03:00:00Z,1602212400,2020,3,0,283.125,283.125,61.602,5.054,1002.9,17.0,-999.0,yes,yes,no,300234066024200,SVP-B,USIABP-AOML,Svalbard,North
2020-10-09T04:00:02Z,1602216003,2020,4,0,283.1667,283.1667,61.602,5.053,1004.2,17.12,-999.0,yes,yes,no,300234066024200,SVP-B,USIABP-AOML,Svalbard,North
2020-10-09T04:59:57Z,1602219597,2020,5,0,283.2083,283.2083,61.601,5.053,1005.0,17.21,-999.0,yes,yes,no,300234066024200,SVP-B,USIABP-AOML,Svalbard,North
2020-10-09T06:00:00Z,1602223200,2020,6,0,283.25,283.25,61.601,5.053,1005.2,17.25,-999.0,yes,yes,no,300234066024200,SVP-B,USIABP-AOML,Svalbard,North
2020-10-09T07:00:02Z,1602226803,2020,7,0,283.2917,283.2917,61.601,5.055,1005.7,17.18,-999.0,yes,yes,no,300234066024200,SVP-B,USIABP-AOML,Svalbard,North
2020-10-09T07:59:57Z,1602230397,2020,8,0,283.3333,283.3333,61.601,5.054,1006.6,17.15,-999.0,yes,yes,no,300234066024200,SVP-B,USIABP-AOML,Svalbard,North
2020-10-09T09:00:00Z,1602234000,2020,9,0,283.375,283.375,61.595,5.079,1007.1,17.14,-999.0,yes,yes,no,300234066024200,SVP-B,USIABP-AOML,Svalbard,North
2020-10-09T10:00:02Z,1602237603,2020,10,0,283.4167,283.4167,61.601,5.055,1007.2,17.14,-999.0,yes,yes,no,300234066024200,SVP-B,USIABP-AOML,Svalbard,North
2020-10-09T10:59:57Z,1602241197,2020,11,0,283.4583,283.4583,61.602,5.054,1007.3,17.14,-999.0,yes,yes,no,300234066024200,SVP-B,USIABP-AOML,Svalbard,North
2020-10-09T12:00:00Z,1602244800,2020,12,0,283.5,283.5,61.601,5.054,1007.2,17.14,-999.0,yes,yes,no,300234066024200,SVP-B,USIABP-AOML,Svalbard,North
2020-10-09T13:00:02Z,1602248403,2020,13,0,283.5417,283.5417,61.601,5.053,1007.2,17.13,-999.0,yes,yes,no,300234066024200,SVP-B,USIABP-AOML,Svalbard,North
2020-10-09T13:59:57Z,1602251997,2020,14,0,283.5833,283.5833,61.601,5.054,1007.0,17.14,-999.0,yes,yes,no,300234066024200,SVP-B,USIABP-AOML,Svalbard,North
2020-10-09T15:00:00Z,1602255600,2020,15,0,283.625,283.625,61.601,5.055,1006.9,17.16,-999.0,yes,yes,no,300234066024200,SVP-B,USIABP-AOML,Svalbard,North
2020-10-09T16:00:02Z,1602259203,2020,16,0,283.6667,283.6667,61.601,5.055,1006.9,17.18,-999.0,yes,yes,no,300234066024200,SVP-B,USIABP-AOML,Svalbard,North
2020-10-09T16:59:57Z,1602262797,2020,17,0,283.7083,283.7083,61.601,5.055,1007.0,17.21,-999.0,yes,yes,no,300234066024200,SVP-B,USIABP-AOML,Svalbard,North
2020-10-09T18:00:00Z,1602266400,2020,18,0,283.75,283.75,61.601,5.054,1006.9,17.23,-999.0,yes,yes,no,300234066024200,SVP-B,USIABP-AOML,Svalbard,North
2020-10-09T19:00:02Z,1602270003,2020,19,0,283.7917,283.7917,61.601,5.055,1006.9,17.24,-999.0,yes,yes,no,300234066024200,SVP-B,USIABP-AOML,Svalbard,North
2020-10-09T19:59:57Z,1602273597,2020,20,0,283.8333,283.8333,61.601,5.054,1007.0,17.25,-999.0,yes,yes,no,300234066024200,SVP-B,USIABP-AOML,Svalbard,North
2020-10-09T21:00:00Z,1602277200,2020,21,0,283.875,283.875,61.601,5.054,1006.9,17.27,-999.0,yes,yes,no,300234066024200,SVP-B,USIABP-AOML,Svalbard,North
2020-10-09T22:00:02Z,1602280803,2020,22,0,283.9167,283.9167,61.601,5.054,1007.0,17.27,-999.0,yes,yes,no,300234066024200,SVP-B,USIABP-AOML,Svalbard,North
2020-10-09T22:59:57Z,1602284397,2020,23,0,283.9583,283.9583,61.601,5.053,1006.9,17.26,-999.0,yes,yes,no,300234066024200,SVP-B,USIABP-AOML,Svalbard,North
2020-10-10T00:00:00Z,1602288000,2020,0,0,284.0,284.0,61.602,5.057,1007.1,17.25,-999.0,yes,yes,no,300234066024200,SVP-B,USIABP-AOML,Svalbard,North
2020-10-10T01:00:02Z,1602291603,2020,1,0,284.0417,284.0417,61.601,5.056,1007.1,17.24,-999.0,yes,yes,no,300234066024200,SVP-B,USIABP-AOML,Svalbard,North
2020-10-10T01:59:57Z,1602295197,2020,2,0,284.0833,284.0833,61.602,5.055,1007.1,17.24,-999.0,yes,yes,no,300234066024200,SVP-B,USIABP-AOML,Svalbard,North
2020-10-10T03:00:00Z,1602298800,2020,3,0,284.125,284.125,61.603,5.055,1007.4,17.22,-999.0,yes,yes,no,300234066024200,SVP-B,USIABP-AOML,Svalbard,North
2020-10-10T04:00:02Z,1602302403,2020,4,0,284.1667,284.1667,61.601,5.055,1007.5,17.21,-999.0,yes,yes,no,300234066024200,SVP-B,USIABP-AOML,Svalbard,North
2020-10-10T04:59:57Z,1602305997,2020,5,0,284.2083,284.2083,61.601,5.056,1007.6,17.18,-999.0,yes,yes,no,300234066024200,SVP-B,USIABP-AOML,Svalbard,North
2020-10-10T06:00:00Z,1602309600,2020,6,0,284.25,284.25,61.601,5.052,1008.1,17.17,-999.0,yes,yes,no,300234066024200,SVP-B,USIABP-AOML,Svalbard,North
2020-10-10T07:00:02Z,1602313203,2020,7,0,284.2917,284.2917,61.603,5.049,1008.7,15.79,-999.0,yes,yes,no,300234066024200,SVP-B,USIABP-AOML,Svalbard,North
2020-10-10T07:59:57Z,1602316797,2020,8,0,284.3333,284.3333,61.603,5.05,1009.1,14.1,-999.0,yes,yes,no,300234066024200,SVP-B,USIABP-AOML,Svalbard,North
2020-10-10T09:00:00Z,1602320400,2020,9,0,284.375,284.375,61.604,5.051,1008.7,13.37,-999.0,yes,yes,no,300234066024200,SVP-B,USIABP-AOML,Svalbard,North
2020-10-10T10:00:02Z,1602324003,2020,10,0,284.4167,284.4167,61.604,5.051,1009.1,13.3,-999.0,yes,yes,no,300234066024200,SVP-B,USIABP-AOML,Svalbard,North
2020-10-10T10:59:57Z,1602327597,2020,11,0,284.4583,284.4583,61.602,5.05,1009.4,13.36,-999.0,yes,yes,no,300234066024200,SVP-B,USIABP-AOML,Svalbard,North
2020-10-10T12:00:00Z,1602331200,2020,12,0,284.5,284.5,61.603,5.055,1009.3,13.36,-999.0,yes,yes,no,300234066024200,SVP-B,USIABP-AOML,Svalbard,North
2020-10-10T13:00:02Z,1602334803,2020,13,0,284.5417,284.5417,61.603,5.055,1009.6,13.36,-999.0,yes,yes,no,300234066024200,SVP-B,USIABP-AOML,Svalbard,North
2020-10-10T13:59:57Z,1602338397,2020,14,0,284.5833,284.5833,61.604,5.048,1009.9,13.41,-999.0,yes,yes,no,300234066024200,SVP-B,USIABP-AOML,Svalbard,North
2020-10-10T15:00:00Z,1602342000,2020,15,0,284.625,284.625,61.604,5.058,1010.3,13.51,-999.0,yes,yes,no,300234066024200,SVP-B,USIABP-AOML,Svalbard,North
2020-10-10T16:00:02Z,1602345603,2020,16,0,284.6667,284.6667,61.604,5.058,1010.7,13.63,-999.0,yes,yes,no,300234066024200,SVP-B,USIABP-AOML,Svalbard,North
2020-10-10T16:59:57Z,1602349197,2020,17,0,284.7083,284.7083,61.604,5.058,1011.3,13.78,-999.0,yes,yes,no,300234066024200,SVP-B,USIABP-AOML,Svalbard,North
2020-10-10T18:00:00Z,1602352800,2020,18,0,284.75,284.75,61.604,5.048,1011.9,13.92,-999.0,yes,yes,no,300234066024200,SVP-B,USIABP-AOML,Svalbard,North
2020-10-10T19:00:02Z,1602356403,2020,19,0,284.7917,284.7917,61.604,5.047,1012.6,14.06,-999.0,yes,yes,no,300234066024200,SVP-B,USIABP-AOML,Svalbard,North
2020-10-10T19:59:57Z,1602359997,2020,20,0,284.8333,284.8333,61.604,5.051,1013.0,14.17,-999.0,yes,yes,no,300234066024200,SVP-B,USIABP-AOML,Svalbard,North
2020-10-10T21:00:00Z,1602363600,2020,21,0,284.875,284.875,61.603,5.047,1013.3,14.26,-999.0,yes,yes,no,300234066024200,SVP-B,USIABP-AOML,Svalbard,North
2020-10-10T22:00:02Z,1602367203,2020,22,0,284.9167,284.9167,61.604,5.051,1013.6,14.37,-999.0,yes,yes,no,300234066024200,SVP-B,USIABP-AOML,Svalbard,North
2020-10-10T22:59:57Z,1602370797,2020,23,0,284.9583,284.9583,61.605,5.048,1014.0,14.45,-999.0,yes,yes,no,300234066024200,SVP-B,USIABP-AOML,Svalbard,North
2020-10-11T00:00:00Z,1602374400,2020,0,0,285.0,285.0,61.604,5.05,1014.5,14.52,-999.0,yes,yes,no,300234066024200,SVP-B,USIABP-AOML,Svalbard,North
2020-10-11T01:00:02Z,1602378003,2020,1,0,285.0417,285.0417,61.604,5.05,1014.7,14.57,-999.0,yes,yes,no,300234066024200,SVP-B,USIABP-AOML,Svalbard,North
2020-10-11T01:59:57Z,1602381597,2020,2,0,285.0833,285.0833,61.604,5.051,1015.2,14.65,-999.0,yes,yes,no,300234066024200,SVP-B,USIABP-AOML,Svalbard,North
2020-10-11T03:00:00Z,1602385200,2020,3,0,285.125,285.125,61.602,5.04,1015.4,14.7,-999.0,yes,yes,no,300234066024200,SVP-B,USIABP-AOML,Svalbard,North
2020-10-11T04:00:02Z,1602388803,2020,4,0,285.1667,285.1667,61.602,5.04,1015.8,14.74,-999.0,yes,yes,no,300234066024200,SVP-B,USIABP-AOML,Svalbard,North
2020-10-11T04:59:57Z,1602392397,2020,5,0,285.2083,285.2083,61.602,5.04,1016.0,14.8,-999.0,yes,yes,no,300234066024200,SVP-B,USIABP-AOML,Svalbard,North
2020-10-11T06:00:00Z,1602396000,2020,6,0,285.25,285.25,61.603,5.046,1016.4,14.84,-999.0,yes,yes,no,300234066024200,SVP-B,USIABP-AOML,Svalbard,North
2020-10-11T07:00:02Z,1602399603,2020,7,0,285.2917,285.2917,61.604,5.05,1016.7,14.88,-999.0,yes,yes,no,300234066024200,SVP-B,USIABP-AOML,Svalbard,North
2020-10-11T07:59:57Z,1602403197,2020,8,0,285.3333,285.3333,61.604,5.05,1017.0,14.88,-999.0,yes,yes,no,300234066024200,SVP-B,USIABP-AOML,Svalbard,North